Regional Weather Roundup
Issued by NWS Bismarck, ND

Home | Current Version | Previous Version | Text Only | Print | Product List | Glossary On
Versions: 1 2 3 4 5 6 7 8 9 10 11 12 13 14 15 16 17 18 19 20 21 22 23 24 25 26 27 28 29 30 31 32 33 34 35 36 37 38 39 40 41 42 43 44 45 46 47 48 49 50
000
ASUS43 KBIS 260110
RWRBIS

NWR BROADCAST TEXT
NATIONAL WEATHER SERVICE BISMARCK ND
700 PM CST TUE NOV 25 2014

NOTE: "FAIR" INDICATES FEW OR NO CLOUDS BELOW 12,000 FEET WITH NO
SIGNIFICANT WEATHER AND/OR OBSTRUCTIONS TO VISIBILITY.


CITY           SKY/WX    TMP DP  RH WIND       PRES   REMARKS
WILLISTON      CLOUDY    21  15  78 N17       30.02R WCI   7
MINOT          LGT SNOW  18  14  84 N17       29.96R FOG     WCI   3
MINOT AFB      MIX PCPN  16  14  93 N16       29.98R WCI   0
BISMARCK       FLURRIES  33  32  96 NW10      29.74R
DICKINSON      CLOUDY    31  27  85 NW21G31   29.81R WCI  18
GARRISON         N/A     21  18  88 NE18G26   29.86R WCI   6
HETTINGER ARPT FLURRIES  33  27  78 NW26G37   29.81R WCI  20
JAMESTOWN      SNOW      26  23  88 E16       29.83R VSB 1/2 WCI  14
BEACH          CLOUDY    27  27 100 N28G33    29.92R WCI  11
CARRINGTON     LGT SNOW  19  19 100 E22       29.88R VSB 1   WCI   3
CROSBY         CLOUDY    16  14  93 NE9       30.05R WCI   4
HARVEY         LGT SNOW  18  16  93 NE22G31   29.90R VSB 1   WCI   0
HAZEN          MIX PCPN  27  23  86 NE22G31   29.83R WCI  12
LINTON         CLOUDY    32  32 100 W6        29.72S
MANDAN         FLURRIES  32  32 100 NW12      29.74R
OAKES          LGT SNOW  27  27 100 E13       29.82S WCI  16
RUGBY          LGT SNOW  14  12  92 NE25      29.97R WCI  -5
STANLEY        FLURRIES  14  14 100 NE12G18   29.97R WCI   0
TIOGA          CLOUDY    14  14 100 NE13      30.01R WCI   0
$$

CITY           SKY/WX    TMP DP  RH WIND       PRES   REMARKS
GRAND FORKS    LGT SNOW  19  14  81 N14       30.00R WCI   6
GRAND FORKS AF LGT SNOW  18  15  90 NE12      30.00R FOG     WCI   5
DEVILS LAKE    CLOUDY    16   7  67 NE17G23   29.94R WCI   0
FARGO          CLOUDY    25  16  68 E5        29.93R WCI  19
CANDO          CLOUDY    14  10  85 NE16G22   30.00R FOG     WCI  -2
CAVALIER       LGT SNOW  14  10  85 N14G22    30.07R WCI  -1
GRAFTON        LGT SNOW  14  10  85 N14       30.04R WCI  -1
GWINNER        PTCLDY    30  23  74 E13       29.86R
LANGDON        LGT SNOW  10   7  85 NE15G23   30.00R WCI  -6
ROLLA          CLOUDY     9   7  92 NE16      30.01R WCI  -9
WALHALLA       LGT SNOW  10  10 100 N17       30.09R WCI  -7
$$

CITY           SKY/WX    TMP DP  RH WIND       PRES   REMARKS
ABERDEEN       LGT SNOW  32  29  88 SE13      29.80F FOG
MOBRIDGE       CLOUDY    35  32  88 CALM      29.72S
BUFFALO          N/A     33  28  81 NW25G39   29.78R
RAPID CITY     CLOUDY    36  24  62 NW17      29.87R
GLASGOW        CLOUDY    25  19  78 N14       30.09R WCI  13
SIDNEY         CLOUDY    27  21  80 NW17G24   30.02R WCI  14
GLENDIVE       CLOUDY    28  23  80 N22       29.99R WCI  15
MILES CITY     CLOUDY    34  26  72 NW24G32   29.98R
BAKER          CLOUDY    31  26  82 NW28G37   29.90R WCI  17
$$

CITY           SKY/WX    TMP DP  RH WIND       PRES   REMARKS
BILLINGS       CLOUDY    33  22  63 NW16      30.08R
GREAT FALLS    CLOUDY    30  27  88 SW7       30.13R
REGINA         CLOUDY    10   5  79 NE10      30.13R WCI  -3
ESTEVAN        FLURRIES  14  10  85 NE9       30.04R WCI   2
$$



USA.gov is the U.S. government's official web portal to all federal, state and local government web resources and services.